Track COSMOS 2499 now! 10-day predictions COSMOS 2499 is classified as:
1 39765U 14028E 22186.57427555 .00000067 00000-0 20393-3 0 9997 2 39765 82.4419 145.9823 0231132 147.9864 213.5523 12.83006927380250